Weather in Staronizhesteblievskaya

Russia / Krasnodar Krai     45°22′46″N   38°26′22″E
temp.,
°C
wind,
m/s
gust,
m/s
humid.,
%
clouds,
%
prec.,
mm/h
press.,
hPa
HPBL,
m
12 may, wed
wed1200:00+9s489538 0.1 1014265
03:00+9s599270 0.2 1014370
06:00+9sse41090100 0.3 1015472
09:00+10se6118761 0.4 1015459
12:00+14sse5764100 0.0 10151180
15:00+16se3564100 0.0 1014331
18:00+17wnw126496 0.0 1013276
21:00+11n33845 0.0 101329
13 may, thu
thu1300:00+11n22905 0.0 101315
03:00+10ne11910 0.0 101211
06:00+11e23900 0.0 101345
09:00+17ene23695 0.0 1013358
12:00+22ene33565 0.0 1012680
15:00+24ese4554100 0.0 1012995
18:00+21e4875100 0.0 1011263
21:00+17e49890 0.0 1011142
14 may, fri
fri1400:00+16ese49926 0.0 1010152
03:00+14ese35920 0.0 101064
06:00+15se22855 0.0 101024
09:00+23ese34625 0.0 1010275
12:00+28ese23495 0.0 1010631
15:00+29ene22460 0.0 1010977
18:00+28e24640 0.0 100994
21:00+21wnw33820 0.0 101041
15 may, sat
sat1500:00+18nnw33790 0.0 100940
03:00+16wnw47740 0.0 1011125
06:00+15nw36785 0.0 1012117
09:00+21w2256100 0.0 1013348
12:00+25wnw214794 0.0 1013885
15:00+26nnw224517 0.0 10121207
18:00+24nne456671 0.0 1011283
21:00+18n33785 0.0 101234
16 may, sun
sun1600:00+17ne34730 0.1 101147
03:00+16ne22865 0.1 101012
06:00+17ene359026 0.0 1010107
09:00+23e35744 0.0 1008451
12:00+27ene55655 0.0 10061021
15:00+28ene6761100 0.0 10041190
18:00+25ene6107221 0.0 1002522
21:00+21ene4128313 0.0 1002235